Hourly Data Report for October 12, 2013

All times are specified in Local Standard Time (LST). Add 1 hour to adjust for Daylight Saving Time where and when it is observed.

EMERSON AUTO
MANITOBA

49°00'00.000" N
97°14'15.000" W
242.00 m
5020881
71560
WEX

Related Data

No related data is available for this station

Download Data

Hourly Data (October 2013)
Hourly Data Report for October 12, 2013
Temp Definition
°C
Dew Point Temp Definition
°C
Rel Hum Definition
%
Wind Dir Definition
10's deg

Wind Spd Definition
km/h
Visibility Definition
km
Stn Press Definition
kPa
Hmdx Definition


Wind Chill Definition


Weather Definition


TIME
00:00 13.0 11.4 90 18 22   96.24     LegendNANA
01:00 13.2 11.1 87 17 26   96.29     LegendNANA
02:00 12.4 10.5 88 18 22   96.38     LegendNANA
03:00 12.6 11.0 90 22 19   96.47     LegendNANA
04:00 10.7 9.3 91 29 26   96.64     LegendNANA
05:00 9.6 8.1 90 29 28   96.79     LegendNANA
06:00 9.3 7.5 89 29 28   96.97     LegendNANA
07:00 9.1 7.2 88 30 32   97.06     LegendNANA
08:00 9.0 7.0 87 29 28   97.25     LegendNANA
09:00 8.9 6.3 84 30 30   97.39     LegendNANA
10:00 9.1 6.0 81 30 30   97.54     LegendNANA
11:00 9.5 5.9 78 30 33   97.66     LegendNANA
12:00 9.6 5.3 75 30 32   97.83     LegendNANA
13:00 10.4 5.6 72 30 30   97.93     LegendNANA
14:00 9.8 4.9 72 30 28   98.08     LegendNANA
15:00 10.0 3.9 66 30 26   98.23     LegendNANA
16:00 10.2 3.9 65 30 24   98.36     LegendNANA
17:00 10.1 2.9 61 31 19   98.49     LegendNANA
18:00 8.8 2.8 66 33 17   98.63     LegendNANA
19:00 7.1 2.3 71 32 15   98.75     LegendNANA
20:00 5.4 1.3 75 33 13   98.87     LegendNANA
21:00 2.4 0.3 86 30 7   98.96     LegendNANA
22:00 0.0 -1.1 92 25 9   99.03   -3 LegendNANA
23:00 0.1 -0.7 94 22 9   99.09     LegendNANA

Notes on Data Quality.

Legend

  • E = Estimated
  • M = Missing
  • NA = Not Available
  • ‡ = Partner data that is not subject to review by the National Climate Archives
Date modified: